Flag for U.S.A. Weather past 2 weeks in Honolulu, Hawaii, U.S.A.

Now
78 °F

Passing clouds.


Feels Like: 80 °F
Forecast: 73 / 85 °F
Wind: 13 mph from Northeast

Location: Honolulu International Airport

Current Time: Jul 28, 2014 at 4:03:11 AM

Latest Report: Jul 28, 2014 at 2:53 AM


Visibility: 10 mi

Pressure: 30.00 "Hg

Humidity: 69%

Dew point: 67 °F

Location of HonoluluLocation

Historic Weather in Honolulu — Graph

°F

Honolulu temperature yesterday

Maximum temperature yesterday: 88 °F (at 12:53 PM)
Minimum temperature yesterday: 77 °F (at 12:53 AM)
Average temperature yesterday: 82 °F

Past Weeks' High & Low Weather Summary

 TemperatureHumidityPressure
High90 °F (Jul 13, 12:53 PM)97% (Jul 19, 11:53 PM)30.09 "Hg (Jul 19, 11:53 PM)
Low73 °F (Jul 20, 3:53 AM)42% (Jul 13, 12:53 PM)29.90 "Hg (Jul 20, 2:53 AM)
Average81 °F64%30.00 "Hg
* Reported Jul 13 2:53 AM — Jul 28 2:53 AM, Honolulu, Weather by CustomWeather, © 2014

Note: Actual official high and low records may vary slightly from our data, if they occured in-between our weather recording intervals... More about our weather records

Advertising

Honolulu weather history for previous 24 hours

 ConditionsComfort  
Time TempWeatherWind HumidityBarometerVisibility
2:53 AM
Jul 28
78 °FPassing clouds.13 mph69%30.00 "Hg10 mi
1:53 AM79 °FPassing clouds.12 mph69%30.01 "Hg10 mi
12:53 AM79 °FPassing clouds.10 mph69%30.03 "Hg10 mi
11:53 PM
Jul 27
80 °FPassing clouds.13 mph67%30.04 "Hg10 mi
10:53 PM80 °FPassing clouds.10 mph67%30.04 "Hg10 mi
9:53 PM80 °FPassing clouds.13 mph67%30.03 "Hg10 mi
8:53 PM81 °FPassing clouds.13 mph65%30.01 "Hg10 mi
7:53 PM81 °FPassing clouds.13 mph65%30.00 "Hg10 mi
6:53 PM83 °FScattered clouds.18 mph61%29.98 "Hg10 mi
5:53 PM86 °FBroken clouds.15 mph53%29.96 "Hg10 mi
4:53 PM86 °FBroken clouds.8 mph57%29.95 "Hg10 mi
3:53 PM85 °FScattered clouds.12 mph63%29.94 "Hg10 mi
2:53 PM86 °FScattered clouds.14 mph59%29.96 "Hg10 mi
1:53 PM85 °FPartly sunny.15 mph63%29.97 "Hg10 mi
12:53 PM88 °FScattered clouds.14 mph50%29.98 "Hg10 mi
11:53 AM87 °FScattered clouds.12 mph50%29.98 "Hg10 mi
10:53 AM85 °FScattered clouds.13 mph55%30.00 "Hg10 mi
9:53 AM85 °FScattered clouds.12 mph57%30.00 "Hg10 mi
8:53 AM83 °FBroken clouds.9 mph61%30.00 "Hg10 mi
7:53 AM81 °FPartly sunny.9 mph65%29.99 "Hg10 mi
6:53 AM80 °FBroken clouds.7 mph71%29.96 "Hg10 mi
5:53 AM78 °FPassing clouds.8 mph79%29.93 "Hg10 mi
4:53 AM78 °FPassing clouds.7 mph79%29.92 "Hg10 mi
Weather by CustomWeather, © 2014

See weather overviewHow to use our weather pages